Flag for U.S.A. Weather past 2 weeks in Lancaster, California, U.S.A.

Now
87 °F

Sunny.


Feels Like: 84 °F
Forecast: 73 / 98 °F
Wind: 17 mph from Southwest

Location: Lancaster / Fox Field

Current Time: Jul 3, 2015 at 8:51:16 PM

Latest Report: Jul 3, 2015 at 7:56 PM


Visibility: 10 mi

Pressure: 29.79 "Hg (27.48 "Hg at 718m altitude)

Humidity: 27%

Dew point: 49 °F

Location of LancasterLocation

Historic Weather in Lancaster — Graph

°F

Lancaster temperature yesterday

Maximum temperature yesterday: 97 °F (at 12:56 PM)
Minimum temperature yesterday: 76 °F (at 3:56 AM)
Average temperature yesterday: 85 °F

Past Weeks' High & Low Weather Summary

 TemperatureHumidityPressure
High105 °F (Jun 20, 1:56 PM)81% (Jul 1, 5:56 AM)30.00 "Hg (Jul 1, 5:56 AM)
Low61 °F (Jun 25, 4:56 AM)3% (Jun 19, 1:56 PM)29.76 "Hg (Jun 20, 3:56 PM)
Average86 °F20%29.88 "Hg
* Reported Jun 18 6:56 PM — Jul 3 6:56 PM, Lancaster, Weather by CustomWeather, © 2015

Note: Actual official high and low records may vary slightly from our data, if they occured in-between our weather recording intervals... More about our weather records

Advertising

Lancaster weather history for previous 24 hours

 ConditionsComfort  
Time TempWeatherWind HumidityBarometerVisibility
6:56 PM
Fri, Jul 3
91 °FSunny.20 mph21%29.79 "Hg10 mi
5:56 PM94 °FSunny.22 mph17%29.79 "Hg10 mi
4:56 PM98 °FSunny.21 mph11%29.79 "Hg10 mi
3:56 PM100 °FSunny.15 mph12%29.80 "Hg10 mi
2:56 PM101 °FSunny.16 mph10%29.82 "Hg10 mi
1:56 PM99 °FSunny.14 mph9%29.84 "Hg10 mi
12:56 PM98 °FSunny.14 mph8%29.85 "Hg10 mi
11:56 AM96 °FSunny.13 mph13%29.88 "Hg10 mi
10:56 AM93 °FSunny.9 mph22%29.89 "Hg10 mi
9:56 AM91 °FSunny.9 mph25%29.90 "Hg10 mi
8:56 AM86 °FSunny.9 mph30%29.91 "Hg10 mi
7:56 AM82 °FSunny.10 mph33%29.90 "Hg10 mi
6:56 AM75 °FSunny.7 mph40%29.91 "Hg10 mi
5:56 AM73 °FClear.10 mph43%29.91 "Hg10 mi
4:56 AM74 °FClear.12 mph41%29.88 "Hg10 mi
3:56 AM75 °FClear.12 mph40%29.89 "Hg10 mi
2:56 AM76 °FClear.9 mph40%29.89 "Hg10 mi
1:56 AM77 °FClear.13 mph37%29.89 "Hg10 mi
12:56 AM77 °FClear.12 mph39%29.90 "Hg10 mi
11:56 PM
Thu, Jul 2
80 °FClear.15 mph36%29.91 "Hg10 mi
10:56 PM81 °FClear.14 mph34%29.90 "Hg10 mi
9:56 PM81 °FClear.13 mph34%29.91 "Hg10 mi
8:56 PM82 °FSunny.20 mph35%29.89 "Hg10 mi
Weather by CustomWeather, © 2015

See weather overviewHow to use our weather pages